Terminal Aerodrome Forecast
Issued by NWS

Home | Current Version | Previous Version | Graphics & Text | Print | Product List | Glossary On
Versions: 1 2 3 4 5 6 7 8 9 10 11 12 13
000
FTUS45 KGGW 021100
TAFSDY
TAF
KSDY 021123Z 0212/0312 VRB05KT P6SM SCT150
     FM021400 26009KT P6SM SCT200
     FM030200 VRB05KT P6SM SCT080
      AMD LTD TO CLD VIS AND WIND=

USA.gov is the U.S. government's official web portal to all federal, state and local government web resources and services.